Location: Unspecified
(0.0000°N, 0.0000°E)
Time: 10:27:37
(UTC+00:00)

Vanguard 3 - Pass Details

Date: 10 October 2022
Orbit: 509 x 3255 km, 33.3° (Epoch: 29 November)

Event Time Altitude Azimuth Distance (km) Brightness Sun altitude
Rises 18:25:19 0° 250° (WSW) 6,466 13.6 -9.5°
Reaches altitude 10° 18:31:27 10° 234° (SW) 5,818 12.5 -11.0°
Maximum altitude 18:43:47 20° 193° (SSW) 5,330 11.5 -14.1°
Drops below altitude 10° 18:56:37 10° 151° (SSE) 6,020 11.3 -17.3°
Sets 19:03:17 0° 136° (SE) 6,738 11.5 -18.9°
